DMSP 5D-2 F13 DEB, 42268

Orbit data source: Space-Track

DMSP 5D-2 F13 DEB, 42268 is space debris in SSO originally from a launch on Fri, 24 Mar 1995 UTC launched from the Air Force Western Test Range (AFWTR). Debris objects in space refer to the collection of defunct objects orbiting the Earth. Examples of debris include non-operational satellites, rocket bodies, and fragments generated from explosions, collisions, or faulty payload assembly.

Loading next visibility...
Identifier
42268, 1995-015GJ
Orbit
SSO
Country
Flag of USUS
Related business
Manufacturer
Unknown
Mission
Spacecraft
Bus & Motor
Unknown
Mass
Unknown
Launch date (UTC)
1995-03-24 (31 years ago)
Launch vehicle
Unknown
Launch site
Air Force Western Test Range (AFWTR)
Object type
Payload
Rocket body
Debris
Shape & HBR
Unknown shape, 0.1 m
Radar Cross Section
Small (<0.1 m²)

Expand to show TLE details & history
Last TLE update: 4 days ago

TLE from 4 days ago
0 DMSP 5D-2 F13 DEB
1 42268U 95015GJ  26169.84336493  .00002852  00000-0  16107-2 0  9990
2 42268  98.7258   8.6345 0114922 350.8248   9.0821 14.07721765567523
Epoch: 2026-06-18T20:14Z
TLE epoch observation values (Epoch: 2026-06-18T20:14:26.729Z)
Latitude
-0.00005°
Longitude
157.94226°
Altitude
787.863 km
Speed
7.502 km/s
True Right ascension
00h 34m 32s
True Declination
0° 00' 00"
Sunlit
Object was in daylight at epoch
Visualization orbit readout
Latitude
Unknown
Longitude
Unknown
Altitude
Unknown
Speed
Unknown
Apparent Right ascension
Unknown
Apparent Declination
Unknown
Sunlit
N/A
Visualization observer readout
Local Sidereal Time
21:38:02
Azimuth
Unknown
Elevation
Unknown
Doppler factor
Unknown
Orbital elements
Apogee altitude
947.586 km
Perigee altitude
781.121 km
Semi-major axis
7,242.491 km
Eccentricity
0.01149
Inclination
98.7258°
RAAN
8.6345°
Arg. of periapsis
350.8248°
True anomaly
9.29296°
Mean anomaly
9.0821°
Eccentric anomaly
9.18723°
Mean motion
3.52137 °/min
Orbital period
102.23 mins
BSTAR
0.0016107

Documentation

Showing up to 5 results
|